• Processing (Info)

  • MPEC 2013-M27 : 2013 MY5

    The following Minor Planet Electronic Circular may be linked-to from your own Web pages, but must not otherwise be redistributed electronically.

    A form allowing access to any MPEC is at the bottom of this page.


    Read MPEC 2013-M26 Read MPEC 2013-M28


    M.P.E.C. 2013-M27                                Issued 2013 June 21, 13:04 UT
    
         The Minor Planet Electronic Circulars contain information on unusual
             minor planets and routine data on comets.  They are published
       on behalf of Commission 20 of the International Astronomical Union by the
              Minor Planet Center, Smithsonian Astrophysical Observatory,
                              Cambridge, MA 02138, U.S.A.
    
                 Prepared using the Tamkin Foundation Computer Network
    
                                  MPC@CFA.HARVARD.EDU
                URL http://www.minorplanetcenter.net/    ISSN 1523-6714
    
                                       2013 MY5
    
    Observations:
         K13M05Y* C2013 06 18.40082 22 15 30.20 -11 37 30.2          20.6 VuEM027G96
         K13M05Y  C2013 06 18.40854 22 15 31.71 -11 37 24.2          20.8 VuEM027G96
         K13M05Y  C2013 06 18.41627 22 15 33.19 -11 37 17.9          20.9 VuEM027G96
         K13M05Y  C2013 06 18.42404 22 15 34.74 -11 37 11.9          20.4 VuEM027G96
         K13M05Y  C2013 06 18.43256 22 15 36.32 -11 37 05.4          20.4 VuEM027G96
         K13M05Y  C2013 06 18.43766 22 15 37.40 -11 37 01.8          20.7 VuEM027G96
         K13M05Y  C2013 06 18.44280 22 15 38.34 -11 36 57.6          20.5 VuEM027G96
         K13M05Y  C2013 06 18.44792 22 15 39.34 -11 36 53.6          20.4 VuEM027G96
         K13M05Y  C2013 06 19.39829 22 18 50.04 -11 24 29.3          19.9 VuEM027G96
         K13M05Y  C2013 06 19.40445 22 18 51.26 -11 24 24.5          20.0 VuEM027G96
         K13M05Y  C2013 06 19.41077 22 18 52.48 -11 24 19.5          20.0 VuEM027G96
         K13M05Y  C2013 06 19.41700 22 18 53.74 -11 24 14.6          19.6 VuEM027G96
         K13M05Y KC2013 06 19.43126 22 18 56.55 -11 24 02.2          20.8 RoEM027291
         K13M05Y KC2013 06 19.43351 22 18 57.00 -11 24 01.4          20.0 RoEM027291
         K13M05Y KC2013 06 19.43576 22 18 57.44 -11 23 58.0          20.6 RoEM027291
         K13M05Y KC2013 06 20.14080522 21 20.62 -11 14 19.2          21.2 VqEM027K91
         K13M05Y KC2013 06 20.14475322 21 21.42 -11 14 16.1          21.4 VqEM027K91
         K13M05Y KC2013 06 20.14905222 21 22.28 -11 14 12.6          21.3 VqEM027K91
         K13M05Y  C2013 06 20.42988 22 22 20.53 -11 10 42.5          20.4 VuEM027G96
         K13M05Y  C2013 06 20.43640 22 22 21.79 -11 10 37.2          20.2 VuEM027G96
         K13M05Y  C2013 06 20.44290 22 22 23.08 -11 10 31.7          20.0 VuEM027G96
         K13M05Y  C2013 06 20.44943 22 22 24.42 -11 10 26.5          20.4 VuEM027G96
         K13M05Y |C2013 06 21.36930 22 25 35.63 -10 57 34.1          20.7 VuEM027807
         K13M05Y |C2013 06 21.37239 22 25 36.27 -10 57 31.5          20.5 VuEM027807
         K13M05Y |C2013 06 21.37547 22 25 36.90 -10 57 28.8          20.5 VuEM027807
         K13M05Y |C2013 06 21.37808 22 25 37.43 -10 57 26.7          20.4 VuEM027807
         K13M05Y  C2013 06 21.43396 22 25 49.47 -10 56 56.6          20.4 VuEM027G96
         K13M05Y  C2013 06 21.43789 22 25 50.26 -10 56 53.2          20.1 VuEM027G96
         K13M05Y  C2013 06 21.44188 22 25 51.09 -10 56 50.3          20.4 VuEM027G96
         K13M05Y  C2013 06 21.44584 22 25 51.92 -10 56 46.8          20.6 VuEM027G96
    
    Observer details:
    291 LPL/Spacewatch II.  Observer J. V. Scotti.  1.8-m f/2.7 reflector + CCD.
    807 Cerro Tololo.  Observers T. Linder, R. Holmes.  0.41-m f/11
        Ritchey-Chretien + CCD.
    G96 Mt. Lemmon Survey.  Observers R. A. Kowalski, A. D. Grauer.  Measurers
        A. Boattini, E. J. Christensen, A. R. Gibbs, A. D. Grauer, R. E. Hill,
        J. A. Johnson, R. A. Kowalski, S. M. Larson, R. H. McNaught, F. C. Shelly.
        1.5-m reflector + CCD.
    K91 Sutherland-LCOGT A.  Observers E. J. Christensen, S. M. Larson, T. Lister.
        Measurer T. Lister.  1.0-m f/8 Ritchey-Chretien + CCD.
    
    Orbital elements:
    2013 MY5                                            PHA, Earth MOID = 0.0357 AU
    Epoch 2013 Apr. 18.0 TT = JDT 2456400.5                 MPC
    M 293.47147              (2000.0)            P               Q
    n   0.43816873     Peri.  277.35892     +0.93447189     -0.35225724
    a   1.7167556      Node   103.27732     +0.34402839     +0.85594313
    e   0.4657168      Incl.    3.04740     +0.09168842     +0.37851842
    P   2.25           H   19.5           G   0.15           U   9
    Residuals in seconds of arc
    130618 G96  0.2-  0.6-    130619 G96  0.4-  0.3-    130620 G96  0.3-  0.2-
    130618 G96  0.0   0.5-    130619 G96  0.0   0.3-    130620 G96  0.1+  0.2-
    130618 G96  0.2-  0.1-    130619 291  0.2-  0.8+    130621 807  0.0   0.1-
    130618 G96  0.5+  0.0     130619 291  0.1-  0.2-    130621 807  0.1+  0.1-
    130618 G96  0.5-  0.1-    130619 291  0.1-  1.5+    130621 807  0.2+  0.0
    130618 G96  0.8+  0.4-    130620 K91  0.1-  0.2+    130621 807  0.1+  0.0
    130618 G96  0.0   0.1-    130620 K91  0.1+  0.1+    130621 G96  0.1-  0.0
    130618 G96  0.2+  0.1-    130620 K91  0.2+  0.1+    130621 G96  0.3-  0.2+
    130619 G96  0.1-  0.3-    130620 G96  0.6+  0.5-    130621 G96  0.1-  0.2-
    130619 G96  0.0   0.3-    130620 G96  0.1-  0.4-    130621 G96  0.2+  0.0
    
    Ephemeris:
    2013 MY5                 a,e,i = 1.72, 0.47, 3                   q = 0.9172
    Date    TT    R. A. (2000) Decl.     Delta      r     Elong.  Phase     V
    2013 05 22    21 00 16.0 -16 10 37   0.8969  1.5465   108.0    38.5    21.8
    ...
    2013 06 06    21 38 18.5 -13 57 44   0.7064  1.4454   113.0    40.3    21.1
    ...
    2013 06 14    22 01 28.6 -12 31 20   0.6142  1.3905   114.9    41.5    20.8
    ...
    2013 06 20    22 20 51.7 -11 16 19   0.5499  1.3491   115.7    42.7    20.5
    2013 06 21    22 24 18.1 -11 02 46   0.5397  1.3422   115.8    43.0    20.5
    2013 06 22    22 27 48.6 -10 48 52   0.5296  1.3352   115.9    43.2    20.4
    ...
    2013 06 28    22 50 26.8 -09 17 26   0.4718  1.2938   115.8    45.0    20.1
    ...
    2013 07 06    23 25 48.7 -06 49 05   0.4033  1.2391   114.4    48.3    19.8
    ...
    2013 07 21    00 54 02.1 -00 19 49   0.3090  1.1399   105.8    59.0    19.4
    
    A. U. Tomatic                (C) Copyright 2013 MPC           M.P.E.C. 2013-M27
    

    Read MPEC 2013-M26 Read MPEC 2013-M28


    MPEC number:

    Enter an MPEC number in one of the following forms:

    • 1997-B01 (the full form)
    • J97B01 (the packed version of the full form)
    • B01 (the abbreviated form)